TimeCST,TemperatureF,Dew PointF,Humidity,Sea Level PressureIn,VisibilityMPH,Wind Direction,Wind SpeedMPH,Gust SpeedMPH,PrecipitationIn,Events,Conditions,WindDirDegrees,DateUTC
12:53 AM,35.1,30.0,82,30.36,10.0,NNE,3.5,-,N/A,,Clear,30,2013-12-11 06:53:00
1:53 AM,35.1,28.9,78,30.35,10.0,NNE,4.6,-,N/A,,Clear,20,2013-12-11 07:53:00
2:53 AM,35.1,28.9,78,30.35,10.0,Variable,5.8,-,N/A,,Clear,0,2013-12-11 08:53:00
3:53 AM,34.0,28.0,79,30.35,10.0,NNE,5.8,-,N/A,,Clear,20,2013-12-11 09:53:00
4:53 AM,33.1,28.0,82,30.36,10.0,NNE,5.8,-,N/A,,Clear,30,2013-12-11 10:53:00
5:53 AM,32.0,28.0,85,30.36,10.0,NNE,6.9,-,N/A,,Clear,30,2013-12-11 11:53:00
6:53 AM,32.0,28.0,85,30.38,10.0,NE,3.5,-,N/A,,Clear,50,2013-12-11 12:53:00
7:53 AM,35.1,28.0,76,30.40,10.0,Calm,Calm,-,N/A,,Clear,0,2013-12-11 13:53:00
8:53 AM,39.9,30.0,68,30.42,10.0,East,4.6,-,N/A,,Clear,80,2013-12-11 14:53:00
9:53 AM,45.0,32.0,60,30.43,10.0,Variable,5.8,-,N/A,,Clear,0,2013-12-11 15:53:00
10:19 AM,46.4,33.8,62,30.41,10.0,Variable,4.6,-,N/A,,Mostly Cloudy,0,2013-12-11 16:19:00
10:29 AM,46.4,33.8,62,30.41,10.0,Calm,Calm,-,N/A,,Overcast,0,2013-12-11 16:29:00
10:53 AM,48.0,35.1,61,30.40,10.0,Calm,Calm,-,N/A,,Overcast,0,2013-12-11 16:53:00
11:23 AM,50.0,37.4,62,30.38,10.0,Calm,Calm,-,N/A,,Scattered Clouds,0,2013-12-11 17:23:00
11:53 AM,51.1,39.9,66,30.37,10.0,Calm,Calm,-,N/A,,Mostly Cloudy,0,2013-12-11 17:53:00
12:53 PM,55.0,43.0,64,30.34,10.0,SW,5.8,-,N/A,,Clear,230,2013-12-11 18:53:00
1:53 PM,55.0,43.0,64,30.33,10.0,Variable,3.5,-,N/A,,Mostly Cloudy,0,2013-12-11 19:53:00
2:53 PM,54.0,44.1,69,30.33,10.0,WSW,3.5,-,N/A,,Overcast,250,2013-12-11 20:53:00
3:53 PM,54.0,44.1,69,30.34,10.0,NW,3.5,-,N/A,,Overcast,310,2013-12-11 21:53:00
4:53 PM,53.1,45.0,74,30.35,10.0,NNW,3.5,-,N/A,,Overcast,340,2013-12-11 22:53:00
5:53 PM,52.0,45.0,77,30.36,10.0,NNW,4.6,-,N/A,,Overcast,330,2013-12-11 23:53:00
6:53 PM,52.0,44.1,74,30.39,10.0,North,3.5,-,N/A,,Overcast,350,2013-12-12 00:53:00
7:53 PM,52.0,37.0,57,30.40,10.0,North,9.2,-,N/A,,Overcast,10,2013-12-12 01:53:00
8:53 PM,50.0,33.1,52,30.42,10.0,North,5.8,-,N/A,,Overcast,10,2013-12-12 02:53:00
9:53 PM,48.0,32.0,54,30.43,10.0,North,9.2,-,N/A,,Mostly Cloudy,10,2013-12-12 03:53:00
10:53 PM,46.9,30.9,54,30.44,10.0,NNE,8.1,-,N/A,,Overcast,20,2013-12-12 04:53:00
11:53 PM,44.1,30.9,60,30.45,10.0,North,8.1,-,N/A,,Clear,360,2013-12-12 05:53:00